| time (UTC) | temp F | wind direction | speed MPH | gust MPH | rain 1hr in | rain 24hr in | rain mn in | humidity % | barometer mb |
| 20260906234856 | 82 | 285 | 1.0 | 1.0 | 0.00 | 0.06 | 0.06 | 77 | 1012.1 |
| 20260906234355 | 83 | 339 | 1.0 | 2.0 | 0.00 | 0.06 | 0.06 | 76 | 1012.4 |
| 20260906233850 | 83 | 298 | 2.0 | 2.0 | 0.00 | 0.06 | 0.06 | 74 | 1012.1 |
| 20260906233349 | 84 | 350 | 3.0 | 3.0 | 0.00 | 0.06 | 0.06 | 74 | 1012.1 |
| 20260906232844 | 84 | 338 | 3.0 | 3.0 | 0.00 | 0.06 | 0.06 | 73 | 1012.2 |
| 20260906232343 | 84 | 262 | 2.0 | 2.0 | 0.00 | 0.06 | 0.06 | 73 | 1012.2 |
| 20260906231838 | 84 | 311 | 1.0 | 2.0 | 0.00 | 0.06 | 0.06 | 72 | 1012.1 |
| 20260906231333 | 84 | 281 | 1.0 | 2.0 | 0.00 | 0.06 | 0.06 | 72 | 1011.9 |
| 20260906230832 | 84 | 316 | 2.0 | 2.0 | 0.00 | 0.06 | 0.06 | 71 | 1011.8 |
| 20260906230328 | 84 | 224 | 0.0 | 1.0 | 0.00 | 0.06 | 0.06 | 71 | 1011.8 |
| 20260906225826 | 85 | 230 | 0.0 | 1.0 | 0.00 | 0.06 | 0.06 | 70 | 1011.9 |
| 20260906225321 | 85 | 324 | 2.0 | 3.0 | 0.00 | 0.06 | 0.06 | 69 | 1011.8 |
| 20260906224817 | 86 | 269 | 2.0 | 2.0 | 0.00 | 0.06 | 0.06 | 68 | 1011.8 |
| 20260906224314 | 86 | 255 | 2.0 | 3.0 | 0.00 | 0.06 | 0.06 | 67 | 1011.7 |
| 20260906223810 | 86 | 333 | 2.0 | 3.0 | 0.00 | 0.06 | 0.06 | 65 | 1011.7 |
| 20260906223305 | 87 | 235 | 2.0 | 2.0 | 0.00 | 0.06 | 0.06 | 65 | 1011.8 |
| 20260906222803 | 87 | 282 | 1.0 | 2.0 | 0.00 | 0.06 | 0.06 | 64 | 1011.7 |
| 20260906222305 | 87 | 340 | 2.0 | 3.0 | 0.00 | 0.06 | 0.06 | 64 | 1011.6 |
| 20260906221800 | 87 | 347 | 3.0 | 5.0 | 0.00 | 0.06 | 0.06 | 63 | 1011.6 |
| 20260906221255 | 87 | 289 | 3.0 | 3.0 | 0.00 | 0.06 | 0.06 | 64 | 1011.3 |
| 20260906220751 | 87 | 275 | 2.0 | 3.0 | 0.00 | 0.06 | 0.06 | 66 | 1011.4 |
| 20260906220246 | 87 | 333 | 1.0 | 2.0 | 0.00 | 0.06 | 0.06 | 65 | 1011.4 |
| 20260906215745 | 87 | 286 | 2.0 | 2.0 | 0.00 | 0.06 | 0.06 | 65 | 1011.4 |
| 20260906215244 | 87 | 287 | 2.0 | 2.0 | 0.00 | 0.06 | 0.06 | 65 | 1011.5 |
| 20260906214743 | 87 | 268 | 2.0 | 2.0 | 0.00 | 0.06 | 0.06 | 65 | 1011.5 |
| 20260906214238 | 87 | 350 | 3.0 | 5.0 | 0.00 | 0.06 | 0.06 | 64 | 1011.4 |
| 20260906213737 | 88 | 0 | 3.0 | 5.0 | 0.00 | 0.06 | 0.06 | 65 | 1011.3 |
| 20260906213237 | 87 | 332 | 3.0 | 3.0 | 0.00 | 0.06 | 0.06 | 66 | 1011.4 |
| 20260906212734 | 88 | 282 | 1.0 | 1.0 | 0.00 | 0.06 | 0.06 | 66 | 1011.4 |
| 20260906212230 | 88 | 269 | 2.0 | 3.0 | 0.00 | 0.06 | 0.06 | 64 | 1011.5 |
| 20260906211729 | 87 | 324 | 3.0 | 3.0 | 0.00 | 0.06 | 0.06 | 65 | 1011.5 |
| 20260906211225 | 87 | 350 | 3.0 | 5.0 | 0.00 | 0.06 | 0.06 | 67 | 1011.5 |
| 20260906210720 | 87 | 219 | 0.0 | 1.0 | 0.00 | 0.06 | 0.06 | 66 | 1011.5 |
| 20260906210215 | 87 | 221 | 0.0 | 1.0 | 0.00 | 0.06 | 0.06 | 66 | 1011.4 |
| 20260906205710 | 88 | 281 | 1.0 | 2.0 | 0.00 | 0.06 | 0.06 | 64 | 1011.7 |
| 20260906205206 | 91 | 351 | 0.0 | 2.0 | 0.00 | 0.06 | 0.06 | 63 | 1011.4 |
| 20260906204700 | 90 | 249 | 1.0 | 1.0 | 0.00 | 0.06 | 0.06 | 63 | 1011.5 |
| 20260906204154 | 88 | 244 | 1.0 | 1.0 | 0.00 | 0.06 | 0.06 | 64 | 1011.4 |
| 20260906203654 | 88 | 247 | 1.0 | 1.0 | 0.00 | 0.06 | 0.06 | 66 | 1011.4 |
| 20260906203149 | 89 | 270 | 2.0 | 2.0 | 0.00 | 0.06 | 0.06 | 66 | 1011.6 |
| 20260906202646 | 90 | 250 | 0.0 | 1.0 | 0.00 | 0.06 | 0.06 | 65 | 1011.5 |
| 20260906202145 | 90 | 265 | 1.0 | 1.0 | 0.00 | 0.06 | 0.06 | 63 | 1011.5 |
| 20260906201641 | 92 | 281 | 3.0 | 3.0 | 0.00 | 0.06 | 0.06 | 63 | 1011.6 |
| 20260906201139 | 92 | 152 | 1.0 | 2.0 | 0.00 | 0.06 | 0.06 | 58 | 1011.7 |
| 20260906200636 | 91 | 270 | 1.0 | 1.0 | 0.00 | 0.06 | 0.06 | 62 | 1011.6 |
| 20260906200132 | 90 | 236 | 0.0 | 1.0 | 0.00 | 0.06 | 0.06 | 62 | 1011.8 |
| 20260906195627 | 89 | 278 | 1.0 | 2.0 | 0.00 | 0.06 | 0.06 | 67 | 1011.7 |
| 20260906195124 | 90 | 265 | 1.0 | 1.0 | 0.00 | 0.06 | 0.06 | 64 | 1011.8 |
| 20260906194620 | 91 | 251 | 0.0 | 0.0 | 0.00 | 0.06 | 0.06 | 65 | 1011.9 |
| 20260906194115 | 92 | 240 | 1.0 | 1.0 | 0.00 | 0.06 | 0.06 | 64 | 1011.8 |
| 20260906193614 | 90 | 266 | 1.0 | 1.0 | 0.00 | 0.06 | 0.06 | 67 | 1011.9 |
| 20260906193110 | 88 | 235 | 0.0 | 0.0 | 0.00 | 0.06 | 0.06 | 70 | 1012.1 |
| 20260906192605 | 88 | 231 | 0.0 | 0.0 | 0.00 | 0.06 | 0.06 | 68 | 1012.1 |
| 20260906192104 | 88 | 237 | 0.0 | 0.0 | 0.00 | 0.06 | 0.06 | 68 | 1012.4 |
| 20260906191600 | 90 | 254 | 2.0 | 2.0 | 0.00 | 0.06 | 0.06 | 68 | 1012.4 |
| 20260906191058 | 92 | 269 | 2.0 | 2.0 | 0.00 | 0.06 | 0.06 | 64 | 1012.5 |
| 20260906190558 | 92 | 251 | 1.0 | 1.0 | 0.00 | 0.06 | 0.06 | 66 | 1012.4 |
| 20260906190053 | 93 | 238 | 0.0 | 1.0 | 0.00 | 0.06 | 0.06 | 64 | 1012.2 |
| 20260906185552 | 92 | 256 | 1.0 | 2.0 | 0.00 | 0.06 | 0.06 | 64 | 1012.5 |
| 20260906185051 | 91 | 255 | 1.0 | 2.0 | 0.00 | 0.06 | 0.06 | 68 | 1012.8 |
| 20260906184546 | 91 | 254 | 0.0 | 1.0 | 0.00 | 0.06 | 0.06 | 65 | 1012.6 |
| 20260906184042 | 93 | 293 | 1.0 | 2.0 | 0.00 | 0.06 | 0.06 | 64 | 1012.9 |
| 20260906183538 | 93 | 265 | 1.0 | 1.0 | 0.00 | 0.06 | 0.06 | 64 | 1012.7 |
| 20260906183033 | 92 | 244 | 1.0 | 2.0 | 0.00 | 0.06 | 0.06 | 63 | 1012.8 |
| 20260906182528 | 91 | 268 | 1.0 | 1.0 | 0.00 | 0.06 | 0.06 | 68 | 1012.7 |
| 20260906182024 | 91 | 282 | 2.0 | 2.0 | 0.00 | 0.06 | 0.06 | 67 | 1013.0 |
| 20260906181520 | 92 | 246 | 1.0 | 1.0 | 0.00 | 0.06 | 0.06 | 64 | 1012.9 |
| 20260906181015 | 91 | 249 | 1.0 | 1.0 | 0.00 | 0.06 | 0.06 | 65 | 1013.2 |
| 20260906180510 | 91 | 266 | 1.0 | 2.0 | 0.00 | 0.06 | 0.06 | 67 | 1013.0 |
| 20260906180009 | 91 | 242 | 1.0 | 1.0 | 0.00 | 0.06 | 0.06 | 68 | 1013.0 |
| 20260906175503 | 90 | 241 | 1.0 | 1.0 | 0.00 | 0.06 | 0.06 | 72 | 1013.3 |
| 20260906175002 | 90 | 256 | 1.0 | 1.0 | 0.00 | 0.06 | 0.06 | 68 | 1013.0 |
| 20260906174501 | 91 | 217 | 0.0 | 0.0 | 0.00 | 0.06 | 0.06 | 68 | 1013.2 |
| 20260906173956 | 91 | 273 | 1.0 | 1.0 | 0.00 | 0.06 | 0.06 | 71 | 1013.4 |
| 20260906173451 | 91 | 247 | 0.0 | 1.0 | 0.00 | 0.06 | 0.06 | 69 | 1013.4 |
| 20260906172951 | 90 | 254 | 1.0 | 1.0 | 0.00 | 0.06 | 0.06 | 71 | 1013.7 |
| 20260906172448 | 90 | 264 | 2.0 | 2.0 | 0.00 | 0.06 | 0.06 | 69 | 1013.3 |
| 20260906171943 | 90 | 229 | 0.0 | 1.0 | 0.00 | 0.06 | 0.06 | 71 | 1013.8 |
| 20260906171442 | 89 | 237 | 1.0 | 1.0 | 0.00 | 0.06 | 0.06 | 71 | 1013.7 |
| 20260906170938 | 89 | 41 | 0.0 | 1.0 | 0.00 | 0.06 | 0.06 | 72 | 1013.9 |
| 20260906170434 | 89 | 264 | 1.0 | 2.0 | 0.00 | 0.06 | 0.06 | 72 | 1013.7 |
| 20260906165931 | 89 | 258 | 0.0 | 1.0 | 0.00 | 0.06 | 0.06 | 72 | 1013.8 |
| 20260906165430 | 89 | 174 | 1.0 | 1.0 | 0.00 | 0.06 | 0.06 | 72 | 1013.8 |
| 20260906164925 | 88 | 233 | 0.0 | 1.0 | 0.00 | 0.06 | 0.06 | 72 | 1013.7 |
| 20260906164424 | 88 | 315 | 2.0 | 2.0 | 0.00 | 0.06 | 0.06 | 72 | 1014.0 |
| 20260906163921 | 89 | 238 | 0.0 | 1.0 | 0.00 | 0.06 | 0.06 | 72 | 1014.0 |
| 20260906163416 | 88 | 241 | 0.0 | 0.0 | 0.00 | 0.06 | 0.06 | 73 | 1014.0 |
| 20260906162914 | 86 | 230 | 1.0 | 1.0 | 0.00 | 0.06 | 0.06 | 75 | 1014.0 |
| 20260906162413 | 86 | 254 | 1.0 | 1.0 | 0.00 | 0.06 | 0.06 | 74 | 1014.1 |
| 20260906161908 | 87 | 264 | 1.0 | 2.0 | 0.00 | 0.06 | 0.06 | 74 | 1014.1 |
| 20260906161408 | 86 | 234 | 0.0 | 1.0 | 0.00 | 0.06 | 0.06 | 75 | 1014.2 |
| 20260906160907 | 86 | 270 | 2.0 | 2.0 | 0.00 | 0.06 | 0.06 | 75 | 1014.0 |
| 20260906160400 | 86 | 257 | 0.0 | 1.0 | 0.00 | 0.06 | 0.06 | 76 | 1014.0 |
| 20260906155859 | 86 | 247 | 1.0 | 1.0 | 0.00 | 0.06 | 0.06 | 77 | 1014.0 |
| 20260906155352 | 86 | 247 | 1.0 | 1.0 | 0.00 | 0.06 | 0.06 | 78 | 1014.3 |
| 20260906154849 | 86 | 250 | 0.0 | 1.0 | 0.00 | 0.06 | 0.06 | 77 | 1014.0 |
| 20260906154343 | 87 | 217 | 1.0 | 1.0 | 0.00 | 0.06 | 0.06 | 73 | 1014.2 |
| 20260906153842 | 87 | 216 | 1.0 | 1.0 | 0.00 | 0.06 | 0.06 | 73 | 1014.1 |
| 20260906153336 | 86 | 186 | 0.0 | 0.0 | 0.00 | 0.06 | 0.06 | 74 | 1013.9 |
| 20260906152831 | 87 | 214 | 0.0 | 0.0 | 0.00 | 0.06 | 0.06 | 73 | 1014.0 |
| 20260906152326 | 86 | 219 | 0.0 | 0.0 | 0.00 | 0.06 | 0.06 | 78 | 1014.0 |
| 20260906151825 | 86 | 248 | 1.0 | 1.0 | 0.00 | 0.06 | 0.06 | 77 | 1014.0 |
| 20260906151321 | 85 | 222 | 0.0 | 0.0 | 0.00 | 0.06 | 0.06 | 78 | 1014.2 |
| 20260906150816 | 84 | 240 | 1.0 | 1.0 | 0.00 | 0.06 | 0.06 | 79 | 1014.1 |
| 20260906150312 | 84 | 212 | 0.0 | 1.0 | 0.00 | 0.06 | 0.06 | 78 | 1014.3 |
| 20260906145811 | 84 | 181 | 0.0 | 0.0 | 0.00 | 0.06 | 0.06 | 79 | 1014.4 |
| 20260906145309 | 82 | 241 | 0.0 | 0.0 | 0.00 | 0.06 | 0.06 | 82 | 1014.4 |
| 20260906144805 | 82 | 249 | 0.0 | 1.0 | 0.00 | 0.06 | 0.06 | 81 | 1014.7 |
| 20260906144300 | 82 | 245 | 1.0 | 1.0 | 0.00 | 0.06 | 0.06 | 82 | 1014.4 |
| 20260906143759 | 82 | 228 | 0.0 | 0.0 | 0.00 | 0.06 | 0.06 | 83 | 1014.3 |
| 20260906143256 | 81 | 271 | 1.0 | 2.0 | 0.00 | 0.06 | 0.06 | 83 | 1014.4 |
| 20260906142756 | 81 | 240 | 1.0 | 1.0 | 0.00 | 0.06 | 0.06 | 85 | 1014.3 |
| 20260906142251 | 81 | 238 | 0.0 | 0.0 | 0.00 | 0.06 | 0.06 | 86 | 1014.2 |
| 20260906141750 | 81 | 224 | 0.0 | 0.0 | 0.00 | 0.06 | 0.06 | 85 | 1014.3 |
| 20260906141245 | 80 | 232 | 0.0 | 0.0 | 0.00 | 0.06 | 0.06 | 88 | 1014.4 |
| 20260906140744 | 79 | 234 | 0.0 | 0.0 | 0.00 | 0.06 | 0.06 | 88 | 1014.0 |
| 20260906140239 | 78 | 228 | 0.0 | 0.0 | 0.00 | 0.06 | 0.06 | 89 | 1014.3 |
| 20260906135736 | 77 | 260 | 0.0 | 0.0 | 0.00 | 0.06 | 0.06 | 93 | 1014.5 |
| 20260906135232 | 77 | 235 | 0.0 | 0.0 | 0.00 | 0.06 | 0.06 | 92 | 1014.2 |
| 20260906134727 | 77 | 238 | 1.0 | 1.0 | 0.00 | 0.06 | 0.06 | 91 | 1014.2 |
| 20260906134223 | 76 | 243 | 0.0 | 1.0 | 0.00 | 0.06 | 0.06 | 90 | 1014.5 |
| 20260906133718 | 76 | 228 | 1.0 | 2.0 | 0.00 | 0.06 | 0.06 | 93 | 1014.5 |
| 20260906133214 | 75 | 229 | 1.0 | 1.0 | 0.00 | 0.06 | 0.06 | 94 | 1014.6 |
| 20260906132709 | 75 | 222 | 1.0 | 1.0 | 0.00 | 0.06 | 0.06 | 95 | 1014.3 |
| 20260906132204 | 74 | 231 | 0.0 | 1.0 | 0.00 | 0.06 | 0.06 | 96 | 1014.5 |
| 20260906131659 | 74 | 202 | 1.0 | 1.0 | 0.00 | 0.06 | 0.06 | 97 | 1014.7 |
| 20260906131154 | 73 | 226 | 1.0 | 1.0 | 0.00 | 0.06 | 0.06 | 99 | 1014.4 |
| 20260906130650 | 73 | 232 | 0.0 | 1.0 | 0.00 | 0.06 | 0.06 | 99 | 1014.4 |
| 20260906130145 | 73 | 223 | 2.0 | 2.0 | 0.00 | 0.06 | 0.06 | 99 | 1014.4 |
| 20260906125643 | 72 | 218 | 0.0 | 0.0 | 0.00 | 0.06 | 0.06 | 99 | 1014.5 |
| 20260906125141 | 72 | 206 | 0.0 | 1.0 | 0.00 | 0.06 | 0.06 | 99 | 1014.3 |
| 20260906124637 | 72 | 225 | 0.0 | 0.0 | 0.00 | 0.06 | 0.06 | 99 | 1014.5 |
| 20260906124132 | 72 | 222 | 0.0 | 0.0 | 0.00 | 0.06 | 0.06 | 99 | 1014.2 |
| 20260906123631 | 72 | 228 | 0.0 | 0.0 | 0.00 | 0.06 | 0.06 | 99 | 1014.2 |
| 20260906123127 | 72 | 218 | 0.0 | 0.0 | 0.00 | 0.06 | 0.06 | 99 | 1014.3 |
| 20260906122626 | 72 | 229 | 0.0 | 0.0 | 0.00 | 0.06 | 0.06 | 99 | 1014.6 |
| 20260906122121 | 71 | 219 | 0.0 | 0.0 | 0.00 | 0.06 | 0.06 | 99 | 1014.4 |
| 20260906121618 | 71 | 222 | 0.0 | 0.0 | 0.00 | 0.06 | 0.06 | 99 | 1014.3 |
| 20260906121114 | 71 | 232 | 0.0 | 1.0 | 0.00 | 0.06 | 0.06 | 99 | 1014.3 |
| 20260906120609 | 71 | 221 | 0.0 | 0.0 | 0.00 | 0.06 | 0.06 | 99 | 1014.1 |
| 20260906120106 | 71 | 227 | 0.0 | 0.0 | 0.00 | 0.06 | 0.06 | 99 | 1014.1 |
| 20260906115601 | 71 | 221 | 0.0 | 0.0 | 0.00 | 0.06 | 0.06 | 99 | 1014.1 |
| 20260906115056 | 71 | 221 | 0.0 | 0.0 | 0.00 | 0.06 | 0.06 | 99 | 1013.9 |
| 20260906114555 | 71 | 233 | 0.0 | 0.0 | 0.00 | 0.06 | 0.06 | 99 | 1013.9 |
| 20260906114051 | 71 | 232 | 0.0 | 0.0 | 0.00 | 0.06 | 0.06 | 99 | 1013.9 |
| 20260906113550 | 71 | 225 | 0.0 | 0.0 | 0.00 | 0.06 | 0.06 | 99 | 1013.7 |
| 20260906113045 | 71 | 230 | 0.0 | 0.0 | 0.00 | 0.06 | 0.06 | 99 | 1013.7 |
| 20260906112540 | 71 | 227 | 0.0 | 0.0 | 0.00 | 0.06 | 0.06 | 99 | 1013.3 |
| 20260906112037 | 71 | 227 | 0.0 | 0.0 | 0.00 | 0.06 | 0.06 | 99 | 1013.5 |
| 20260906111536 | 71 | 226 | 0.0 | 0.0 | 0.00 | 0.06 | 0.06 | 99 | 1013.4 |
| 20260906111031 | 71 | 214 | 0.0 | 0.0 | 0.00 | 0.06 | 0.06 | 99 | 1013.2 |
| 20260906110531 | 71 | 234 | 1.0 | 1.0 | 0.00 | 0.06 | 0.06 | 99 | 1013.4 |
| 20260906110030 | 71 | 225 | 0.0 | 0.0 | 0.00 | 0.06 | 0.06 | 99 | 1013.1 |
| 20260906105526 | 71 | 231 | 0.0 | 0.0 | 0.00 | 0.06 | 0.06 | 99 | 1013.2 |
| 20260906105022 | 71 | 224 | 0.0 | 0.0 | 0.00 | 0.06 | 0.06 | 99 | 1013.5 |
| 20260906104520 | 71 | 230 | 0.0 | 0.0 | 0.00 | 0.06 | 0.06 | 99 | 1013.2 |
| 20260906104015 | 71 | 223 | 0.0 | 0.0 | 0.00 | 0.06 | 0.06 | 99 | 1013.1 |
| 20260906103513 | 71 | 228 | 0.0 | 0.0 | 0.00 | 0.06 | 0.06 | 99 | 1013.1 |
| 20260906103009 | 71 | 230 | 0.0 | 0.0 | 0.00 | 0.06 | 0.06 | 99 | 1013.2 |
| 20260906102508 | 71 | 232 | 0.0 | 0.0 | 0.00 | 0.06 | 0.06 | 99 | 1013.1 |
| 20260906102003 | 71 | 237 | 0.0 | 1.0 | 0.00 | 0.06 | 0.06 | 99 | 1013.2 |
| 20260906101458 | 71 | 221 | 1.0 | 1.0 | 0.00 | 0.06 | 0.06 | 99 | 1013.1 |
| 20260906100953 | 71 | 226 | 0.0 | 1.0 | 0.00 | 0.06 | 0.06 | 99 | 1013.2 |
| 20260906100448 | 71 | 228 | 0.0 | 0.0 | 0.00 | 0.06 | 0.06 | 99 | 1013.1 |
| 20260906095947 | 71 | 233 | 1.0 | 1.0 | 0.00 | 0.06 | 0.06 | 99 | 1013.3 |
| 20260906095443 | 71 | 230 | 0.0 | 0.0 | 0.00 | 0.06 | 0.06 | 99 | 1013.1 |
| 20260906094938 | 71 | 230 | 0.0 | 0.0 | 0.00 | 0.06 | 0.06 | 99 | 1013.1 |
| 20260906094432 | 72 | 221 | 0.0 | 0.0 | 0.00 | 0.06 | 0.06 | 99 | 1013.1 |
| 20260906093928 | 72 | 217 | 1.0 | 2.0 | 0.00 | 0.06 | 0.06 | 99 | 1013.2 |
| 20260906093425 | 72 | 224 | 2.0 | 2.0 | 0.00 | 0.06 | 0.06 | 99 | 1013.2 |
| 20260906092924 | 72 | 227 | 1.0 | 1.0 | 0.00 | 0.06 | 0.06 | 99 | 1013.1 |
| 20260906092424 | 71 | 232 | 0.0 | 0.0 | 0.00 | 0.06 | 0.06 | 99 | 1013.1 |
| 20260906091919 | 71 | 239 | 0.0 | 1.0 | 0.00 | 0.06 | 0.06 | 99 | 1012.9 |
| 20260906091415 | 72 | 226 | 0.0 | 0.0 | 0.00 | 0.06 | 0.06 | 99 | 1012.9 |
| 20260906090912 | 72 | 232 | 0.0 | 0.0 | 0.00 | 0.06 | 0.06 | 99 | 1013.1 |
| 20260906090411 | 72 | 217 | 0.0 | 1.0 | 0.00 | 0.06 | 0.06 | 99 | 1013.1 |
| 20260906085906 | 72 | 226 | 0.0 | 1.0 | 0.00 | 0.06 | 0.06 | 99 | 1013.0 |
| 20260906085400 | 72 | 234 | 0.0 | 1.0 | 0.00 | 0.06 | 0.06 | 99 | 1013.0 |
| 20260906084859 | 72 | 233 | 0.0 | 0.0 | 0.00 | 0.06 | 0.06 | 99 | 1013.1 |
| 20260906084354 | 72 | 234 | 0.0 | 1.0 | 0.00 | 0.06 | 0.06 | 99 | 1012.8 |
| 20260906083849 | 72 | 236 | 0.0 | 1.0 | 0.00 | 0.06 | 0.06 | 99 | 1013.1 |
| 20260906083344 | 72 | 226 | 1.0 | 2.0 | 0.00 | 0.06 | 0.06 | 99 | 1013.1 |
| 20260906082843 | 72 | 220 | 1.0 | 1.0 | 0.00 | 0.06 | 0.06 | 99 | 1013.2 |
| 20260906082339 | 72 | 224 | 1.0 | 1.0 | 0.00 | 0.06 | 0.06 | 99 | 1013.0 |
| 20260906081835 | 72 | 227 | 1.0 | 2.0 | 0.00 | 0.06 | 0.06 | 99 | 1013.0 |
| 20260906081330 | 72 | 220 | 1.0 | 1.0 | 0.00 | 0.06 | 0.06 | 99 | 1012.9 |
| 20260906080826 | 72 | 226 | 0.0 | 0.0 | 0.00 | 0.06 | 0.06 | 99 | 1012.9 |
| 20260906080323 | 72 | 222 | 0.0 | 0.0 | 0.00 | 0.06 | 0.06 | 99 | 1013.0 |
| 20260906075821 | 72 | 220 | 1.0 | 2.0 | 0.00 | 0.06 | 0.06 | 99 | 1013.0 |
| 20260906075316 | 72 | 224 | 0.0 | 0.0 | 0.00 | 0.06 | 0.06 | 99 | 1012.7 |
| 20260906074812 | 72 | 236 | 0.0 | 0.0 | 0.00 | 0.06 | 0.06 | 99 | 1012.8 |
| 20260906074311 | 73 | 233 | 1.0 | 1.0 | 0.00 | 0.06 | 0.06 | 99 | 1012.9 |
| 20260906073810 | 73 | 235 | 1.0 | 1.0 | 0.00 | 0.06 | 0.06 | 99 | 1012.9 |
| 20260906073305 | 73 | 217 | 1.0 | 1.0 | 0.00 | 0.06 | 0.06 | 99 | 1013.0 |
| 20260906072802 | 73 | 225 | 1.0 | 2.0 | 0.00 | 0.06 | 0.06 | 99 | 1012.9 |
| 20260906072257 | 73 | 226 | 1.0 | 2.0 | 0.00 | 0.06 | 0.06 | 99 | 1012.9 |
| 20260906071753 | 73 | 232 | 0.0 | 1.0 | 0.00 | 0.06 | 0.06 | 99 | 1012.7 |
| 20260906071253 | 73 | 229 | 1.0 | 1.0 | 0.00 | 0.06 | 0.06 | 99 | 1012.8 |
| 20260906070749 | 73 | 215 | 1.0 | 2.0 | 0.00 | 0.06 | 0.06 | 99 | 1012.9 |
| 20260906070244 | 73 | 239 | 1.0 | 1.0 | 0.00 | 0.06 | 0.06 | 99 | 1012.8 |
| 20260906065744 | 73 | 228 | 1.0 | 1.0 | 0.00 | 0.06 | 0.06 | 99 | 1012.8 |
| 20260906065240 | 73 | 220 | 1.0 | 1.0 | 0.00 | 0.06 | 0.06 | 99 | 1012.8 |
| 20260906064735 | 73 | 225 | 0.0 | 0.0 | 0.00 | 0.06 | 0.06 | 99 | 1012.7 |
| 20260906064231 | 73 | 232 | 0.0 | 0.0 | 0.00 | 0.06 | 0.06 | 99 | 1012.9 |
| 20260906063726 | 74 | 232 | 0.0 | 0.0 | 0.00 | 0.06 | 0.06 | 99 | 1012.7 |
| 20260906063221 | 74 | 222 | 0.0 | 0.0 | 0.00 | 0.06 | 0.06 | 99 | 1012.8 |
| 20260906062716 | 74 | 235 | 0.0 | 0.0 | 0.00 | 0.06 | 0.06 | 99 | 1013.0 |
| 20260906062215 | 74 | 232 | 0.0 | 0.0 | 0.00 | 0.06 | 0.06 | 99 | 1013.1 |
| 20260906061712 | 74 | 219 | 0.0 | 0.0 | 0.00 | 0.06 | 0.06 | 99 | 1013.0 |
| 20260906061207 | 74 | 212 | 0.0 | 0.0 | 0.00 | 0.06 | 0.06 | 99 | 1013.4 |
| 20260906060702 | 74 | 209 | 0.0 | 0.0 | 0.00 | 0.06 | 0.06 | 99 | 1013.8 |
| 20260906060159 | 74 | 218 | 0.0 | 0.0 | 0.00 | 0.06 | 0.06 | 99 | 1013.7 |
| 20260906055654 | 74 | 226 | 0.0 | 0.0 | 0.00 | 0.06 | 0.06 | 99 | 1013.7 |
| 20260906055150 | 74 | 234 | 0.0 | 0.0 | 0.00 | 0.06 | 0.06 | 99 | 1013.5 |
| 20260906054645 | 74 | 215 | 0.0 | 0.0 | 0.05 | 0.06 | 0.06 | 99 | 1013.4 |
| 20260906054140 | 74 | 229 | 0.0 | 0.0 | 0.05 | 0.06 | 0.06 | 99 | 1013.8 |
| 20260906053637 | 74 | 207 | 1.0 | 1.0 | 0.00 | 0.05 | 0.05 | 99 | 1013.8 |
| 20260906053132 | 74 | 256 | 0.0 | 0.0 | 0.07 | 0.05 | 0.05 | 99 | 1013.4 |
| 20260906052627 | 74 | 217 | 0.0 | 0.0 | 0.07 | 0.05 | 0.05 | 98 | 1013.3 |
| 20260906052124 | 75 | 235 | 1.0 | 1.0 | 0.05 | 0.04 | 0.04 | 98 | 1013.5 |
| 20260906051620 | 75 | 233 | 2.0 | 2.0 | 0.12 | 0.04 | 0.04 | 97 | 1014.2 |
| 20260906051115 | 76 | 235 | 0.0 | 0.0 | 0.12 | 0.03 | 0.03 | 95 | 1014.5 |
| 20260906050610 | 76 | 230 | 0.0 | 0.0 | 0.12 | 0.02 | 0.02 | 94 | 1014.4 |
| 20260906050105 | 77 | 233 | 0.0 | 0.0 | 0.07 | 0.01 | 0.01 | 93 | 1014.5 |
| 20260906045603 | 77 | 256 | 1.0 | 1.0 | 0.00 | 0.02 | 0.02 | 92 | 1014.6 |
| 20260906045059 | 77 | 235 | 1.0 | 1.0 | 0.00 | 0.02 | 0.02 | 92 | 1014.5 |
| 20260906044554 | 77 | 228 | 0.0 | 0.0 | 0.00 | 0.02 | 0.02 | 92 | 1014.6 |
| 20260906044049 | 78 | 247 | 0.0 | 1.0 | 0.00 | 0.02 | 0.02 | 90 | 1014.4 |
| 20260906043545 | 78 | 249 | 0.0 | 0.0 | 0.00 | 0.02 | 0.02 | 89 | 1014.2 |
| 20260906043041 | 78 | 282 | 0.0 | 1.0 | 0.00 | 0.02 | 0.02 | 88 | 1014.2 |
| 20260906042539 | 77 | 252 | 1.0 | 1.0 | 0.00 | 0.02 | 0.02 | 90 | 1014.2 |
| 20260906042034 | 77 | 342 | 4.0 | 5.0 | 0.00 | 0.02 | 0.02 | 91 | 1014.6 |
| 20260906041525 | 77 | 332 | 3.0 | 3.0 | 0.00 | 0.02 | 0.02 | 91 | 1014.1 |
| 20260906041020 | 77 | 233 | 1.0 | 1.0 | 0.00 | 0.02 | 0.02 | 90 | 1013.3 |
| 20260906040514 | 77 | 230 | 0.0 | 1.0 | 0.00 | 0.02 | 0.02 | 90 | 1013.2 |
| 20260906040010 | 77 | 230 | 0.0 | 0.0 | 0.00 | 0.02 | 0.02 | 90 | 1013.4 |
| 20260906035459 | 77 | 237 | 1.0 | 1.0 | 0.00 | 0.02 | 0.02 | 90 | 1013.8 |
| 20260906034955 | 77 | 232 | 0.0 | 1.0 | 0.00 | 0.02 | 0.02 | 90 | 1014.0 |
| 20260906034454 | 77 | 222 | 0.0 | 0.0 | 0.00 | 0.02 | 0.02 | 91 | 1014.4 |
| 20260906033950 | 77 | 235 | 1.0 | 1.0 | 0.00 | 0.02 | 0.02 | 91 | 1014.2 |
| 20260906033449 | 77 | 221 | 0.0 | 0.0 | 0.00 | 0.02 | 0.02 | 91 | 1014.3 |
| 20260906032945 | 76 | 225 | 0.0 | 1.0 | 0.00 | 0.02 | 0.02 | 91 | 1014.1 |
| 20260906032442 | 77 | 222 | 0.0 | 0.0 | 0.00 | 0.02 | 0.02 | 92 | 1013.7 |
| 20260906031937 | 77 | 220 | 0.0 | 0.0 | 0.00 | 0.02 | 0.02 | 91 | 1013.3 |
| 20260906031432 | 77 | 230 | 0.0 | 0.0 | 0.00 | 0.02 | 0.02 | 90 | 1013.4 |
| 20260906030927 | 77 | 234 | 1.0 | 1.0 | 0.00 | 0.02 | 0.02 | 91 | 1013.1 |
| 20260906030422 | 77 | 228 | 0.0 | 0.0 | 0.00 | 0.02 | 0.02 | 91 | 1013.1 |
| 20260906025916 | 77 | 221 | 0.0 | 0.0 | 0.00 | 0.02 | 0.02 | 91 | 1013.2 |
| 20260906025411 | 77 | 221 | 0.0 | 0.0 | 0.00 | 0.02 | 0.02 | 91 | 1013.5 |
| 20260906024910 | 77 | 221 | 0.0 | 0.0 | 0.00 | 0.02 | 0.02 | 90 | 1013.4 |
| 20260906024409 | 77 | 221 | 0.0 | 0.0 | 0.00 | 0.02 | 0.02 | 91 | 1013.4 |
| 20260906023904 | 77 | 221 | 0.0 | 0.0 | 0.00 | 0.02 | 0.02 | 91 | 1013.1 |
| 20260906023400 | 77 | 225 | 0.0 | 0.0 | 0.00 | 0.02 | 0.02 | 90 | 1013.2 |
| 20260906022855 | 77 | 226 | 0.0 | 0.0 | 0.00 | 0.02 | 0.02 | 91 | 1012.9 |
| 20260906022350 | 77 | 230 | 0.0 | 0.0 | 0.00 | 0.02 | 0.02 | 90 | 1012.6 |
| 20260906021846 | 77 | 228 | 1.0 | 1.0 | 0.00 | 0.02 | 0.02 | 90 | 1012.7 |
| 20260906021345 | 77 | 232 | 0.0 | 1.0 | 0.00 | 0.02 | 0.02 | 90 | 1012.6 |
| 20260906020839 | 77 | 234 | 2.0 | 2.0 | 0.00 | 0.02 | 0.02 | 90 | 1012.5 |
| 20260906020339 | 78 | 230 | 0.0 | 0.0 | 0.00 | 0.02 | 0.02 | 90 | 1012.7 |
| 20260906015834 | 78 | 230 | 0.0 | 0.0 | 0.00 | 0.02 | 0.02 | 89 | 1012.4 |
| 20260906015332 | 79 | 230 | 0.0 | 0.0 | 0.00 | 0.02 | 0.02 | 88 | 1012.6 |
| 20260906014827 | 79 | 236 | 0.0 | 0.0 | 0.00 | 0.02 | 0.02 | 86 | 1012.4 |
| 20260906014322 | 79 | 234 | 0.0 | 0.0 | 0.00 | 0.02 | 0.02 | 86 | 1012.4 |
| 20260906013818 | 79 | 220 | 0.0 | 0.0 | 0.00 | 0.02 | 0.02 | 85 | 1012.4 |
| 20260906013313 | 79 | 232 | 0.0 | 0.0 | 0.00 | 0.02 | 0.02 | 85 | 1012.1 |
| 20260906012809 | 80 | 219 | 0.0 | 0.0 | 0.00 | 0.02 | 0.02 | 85 | 1012.3 |
| 20260906012309 | 80 | 226 | 0.0 | 0.0 | 0.00 | 0.02 | 0.02 | 83 | 1012.1 |
| 20260906011804 | 80 | 227 | 0.0 | 0.0 | 0.00 | 0.02 | 0.02 | 83 | 1011.9 |
| 20260906011303 | 80 | 231 | 0.0 | 1.0 | 0.00 | 0.02 | 0.02 | 83 | 1012.0 |
| 20260906010759 | 80 | 226 | 0.0 | 0.0 | 0.00 | 0.02 | 0.02 | 83 | 1012.3 |
| 20260906010256 | 80 | 226 | 0.0 | 1.0 | 0.00 | 0.02 | 0.02 | 83 | 1012.3 |
| 20260906005750 | 81 | 230 | 1.0 | 2.0 | 0.00 | 0.02 | 0.02 | 83 | 1012.4 |
| 20260906005250 | 80 | 221 | 0.0 | 0.0 | 0.00 | 0.02 | 0.02 | 83 | 1012.5 |
| 20260906004749 | 81 | 230 | 0.0 | 0.0 | 0.00 | 0.02 | 0.02 | 83 | 1012.5 |
| 20260906004244 | 81 | 218 | 0.0 | 0.0 | 0.00 | 0.02 | 0.02 | 83 | 1012.6 |
| 20260906003739 | 80 | 239 | 1.0 | 1.0 | 0.00 | 0.02 | 0.02 | 84 | 1012.5 |
| 20260906003235 | 81 | 244 | 0.0 | 0.0 | 0.00 | 0.02 | 0.02 | 84 | 1012.4 |
| 20260906002734 | 81 | 245 | 0.0 | 0.0 | 0.00 | 0.02 | 0.02 | 82 | 1012.5 |
| 20260906002229 | 81 | 244 | 0.0 | 0.0 | 0.00 | 0.02 | 0.02 | 82 | 1012.7 |
| 20260906001724 | 82 | 230 | 0.0 | 1.0 | 0.00 | 0.02 | 0.02 | 82 | 1012.4 |
| 20260906001219 | 82 | 224 | 0.0 | 0.0 | 0.00 | 0.02 | 0.02 | 81 | 1012.6 |
| 20260906000715 | 82 | 230 | 0.0 | 0.0 | 0.00 | 0.02 | 0.02 | 80 | 1012.7 |
| 20260906000212 | 83 | 230 | 0.0 | 0.0 | 0.00 | 0.02 | 0.02 | 78 | 1012.8 |
| 20260905235709 | 83 | 220 | 0.0 | 0.0 | 0.00 | 0.02 | 0.02 | 77 | 1012.4 |
| 20260905235204 | 84 | 228 | 1.0 | 1.0 | 0.00 | 0.02 | 0.02 | 76 | 1012.4 |